FW2415 Weather Reports


Display with metric or nautical units.
time (UTC)temp
F
wind
direction
speed
MPH
gust
MPH
rain 1hr
in
rain 24hr
in
rain mn
in
humidity
%
barometer
mb
20260507232034 50 244 2.0 6.0 0.00 0.00 0.00 82 1008.4
20260507231604 50 256 2.0 6.0 0.00 0.00 0.00 82 1008.4
20260507230014 50 236 2.0 10.0 0.00 0.00 0.00 82 1008.4
20260507225534 50 311 2.0 10.0 0.00 0.00 0.00 82 1008.4
20260507225024 50 262 3.0 10.0 0.00 0.00 0.00 82 1008.4
20260507224522 51 249 3.0 12.0 0.00 0.00 0.00 82 1008.4
20260507224013 51 222 2.0 12.0 0.00 0.00 0.00 82 1008.5
20260507223119 51 265 3.0 12.0 0.00 0.00 0.00 80 1008.6
20260507222518 51 339 2.0 7.0 0.00 0.00 0.00 81 1008.6
20260507221016 51 261 2.0 7.0 0.00 0.00 0.00 81 1008.5
20260507220516 51 225 2.0 7.0 0.00 0.00 0.00 81 1008.5
20260507220132 51 210 2.0 13.0 0.00 0.00 0.00 80 1008.6
20260507215516 51 252 2.0 13.0 0.00 0.00 0.00 80 1008.6
20260507215011 51 216 3.0 13.0 0.00 0.00 0.00 80 1008.7
20260507214513 51 231 3.0 9.0 0.00 0.00 0.00 79 1008.7
20260507213515 51 259 3.0 10.0 0.00 0.00 0.00 79 1008.8
20260507213011 51 237 3.0 9.0 0.00 0.00 0.00 79 1008.8
20260507212519 50 232 2.0 7.0 0.00 0.00 0.00 80 1008.8
20260507212010 50 228 2.0 7.0 0.00 0.00 0.00 80 1008.8
20260507211519 50 219 2.0 7.0 0.00 0.00 0.00 80 1008.9
20260507211009 50 265 1.0 6.0 0.00 0.00 0.00 80 1008.8
20260507210531 50 223 1.0 6.0 0.00 0.00 0.00 80 1008.8
20260507210013 50 276 2.0 6.0 0.00 0.00 0.00 80 1008.8
20260507205511 50 198 1.0 7.0 0.00 0.00 0.00 79 1008.7
20260507204513 50 197 3.0 8.0 0.00 0.00 0.00 79 1008.5
20260507203019 51 182 3.0 15.0 0.00 0.00 0.00 78 1008.3
20260507202525 51 242 4.0 15.0 0.00 0.00 0.00 77 1008.2
20260507202016 51 153 2.0 15.0 0.00 0.00 0.00 76 1008.2
20260507201010 52 235 4.0 10.0 0.00 0.00 0.00 75 1008.1
20260507200512 52 285 2.0 12.0 0.00 0.00 0.00 73 1008.1
20260507200007 53 219 2.0 12.0 0.00 0.00 0.00 72 1008.1
20260507195508 53 253 3.0 15.0 0.00 0.00 0.00 71 1008.1
20260507195009 53 248 2.0 15.0 0.00 0.00 0.00 70 1008.1
20260507194509 54 219 5.0 15.0 0.00 0.00 0.00 69 1008.1
20260507194008 54 242 3.0 13.0 0.00 0.00 0.00 69 1008.1
20260507193509 54 245 5.0 16.0 0.00 0.00 0.00 68 1008.1
20260507193009 54 244 5.0 16.0 0.00 0.00 0.00 68 1008.0
20260507192507 54 254 7.0 16.0 0.00 0.00 0.00 67 1008.0
20260507192009 54 247 5.0 16.0 0.00 0.00 0.00 65 1008.0
20260507191508 55 262 3.0 10.0 0.00 0.00 0.00 65 1008.0
20260507191007 55 275 4.0 12.0 0.00 0.00 0.00 64 1007.9
20260507190506 55 272 5.0 13.0 0.00 0.00 0.00 63 1007.9
20260507190007 56 259 5.0 13.0 0.00 0.00 0.00 62 1008.0
20260507185506 56 252 3.0 13.0 0.00 0.00 0.00 61 1007.9
20260507185007 56 250 5.0 20.0 0.00 0.00 0.00 61 1007.9
20260507184506 56 248 5.0 20.0 0.00 0.00 0.00 61 1007.8
20260507184008 56 244 4.0 20.0 0.00 0.00 0.00 62 1007.6
20260507182509 57 257 3.0 12.0 0.00 0.00 0.00 60 1007.5
20260507182008 57 252 5.0 12.0 0.00 0.00 0.00 60 1007.4
20260507181507 57 273 2.0 13.0 0.00 0.00 0.00 61 1007.5
20260507180507 58 239 7.0 20.0 0.00 0.00 0.00 58 1007.5
20260507180008 58 262 5.0 15.0 0.00 0.00 0.00 58 1007.5
20260507175507 57 259 6.0 15.0 0.00 0.02 0.00 58 1007.6
20260507175008 57 247 6.0 18.0 0.00 0.02 0.00 57 1007.6
20260507174511 57 235 5.0 18.0 0.00 0.02 0.00 57 1007.6
20260507173506 58 260 2.0 13.0 0.00 0.02 0.00 56 1007.5
20260507173008 59 302 5.0 13.0 0.00 0.02 0.00 56 1007.5
20260507172506 59 266 2.0 12.0 0.00 0.02 0.00 55 1007.6
20260507172008 59 230 3.0 12.0 0.00 0.02 0.00 56 1007.6
20260507171506 59 254 4.0 14.0 0.00 0.02 0.00 55 1007.6
20260507171007 59 249 3.0 14.0 0.00 0.02 0.00 56 1007.6
20260507170506 58 254 5.0 14.0 0.00 0.02 0.00 56 1007.6
20260507170006 58 257 4.0 12.0 0.00 0.02 0.00 56 1007.7
20260507165506 58 239 3.0 12.0 0.00 0.02 0.00 57 1007.7
20260507165007 58 253 5.0 12.0 0.00 0.05 0.00 56 1007.7
20260507164506 58 257 3.0 13.0 0.00 0.05 0.00 55 1007.7
20260507164008 58 256 5.0 13.0 0.00 0.05 0.00 55 1007.7
20260507163506 59 256 2.0 13.0 0.00 0.05 0.00 55 1007.8
20260507163007 58 259 6.0 16.0 0.00 0.05 0.00 54 1007.8
20260507162507 59 262 6.0 16.0 0.00 0.05 0.00 53 1007.8
20260507161506 58 265 5.0 18.0 0.00 0.05 0.00 56 1007.8
20260507160506 58 251 7.0 12.0 0.00 0.05 0.00 55 1007.8
20260507160006 58 250 5.0 14.0 0.00 0.05 0.00 56 1007.8
20260507155507 58 261 6.0 18.0 0.00 0.05 0.00 55 1007.8
20260507155006 58 254 6.0 18.0 0.00 0.05 0.00 55 1007.7
20260507154506 58 257 5.0 16.0 0.00 0.05 0.00 55 1007.8
20260507154009 58 266 5.0 15.0 0.00 0.05 0.00 55 1007.8
20260507153506 58 259 8.0 16.0 0.00 0.05 0.00 54 1007.8
20260507153007 58 234 6.0 16.0 0.00 0.05 0.00 54 1008.0
20260507152506 58 265 5.0 21.0 0.00 0.05 0.00 56 1007.8
20260507152007 58 260 7.0 21.0 0.00 0.05 0.00 54 1007.8
20260507151506 59 265 5.0 20.0 0.00 0.05 0.00 55 1007.9
20260507150507 59 260 6.0 15.0 0.00 0.05 0.00 55 1007.8
20260507145506 58 250 6.0 12.0 0.00 0.05 0.00 56 1007.9
20260507144506 58 268 7.0 16.0 0.00 0.05 0.00 57 1008.0
20260507144007 58 184 3.0 16.0 0.00 0.05 0.00 57 1008.0
20260507143506 58 213 8.0 16.0 0.00 0.05 0.00 56 1007.9
20260507143006 58 270 5.0 12.0 0.00 0.05 0.00 61 1008.0
20260507142007 58 193 3.0 15.0 0.00 0.05 0.00 64 1008.0
20260507141506 58 135 3.0 18.0 0.00 0.05 0.00 63 1008.1
20260507141007 58 230 5.0 20.0 0.00 0.05 0.00 60 1008.2
20260507140506 58 233 5.0 20.0 0.00 0.05 0.00 62 1008.2
20260507140011 58 232 5.0 20.0 0.00 0.05 0.00 62 1008.2
20260507135506 59 249 6.0 15.0 0.00 0.05 0.00 62 1008.2
20260507135007 58 257 5.0 15.0 0.00 0.05 0.00 61 1008.3
20260507134506 59 260 5.0 15.0 0.00 0.05 0.00 63 1008.3
20260507134007 57 217 5.0 12.0 0.00 0.05 0.00 65 1008.4
20260507133014 57 143 3.0 12.0 0.00 0.05 0.00 69 1008.8
20260507132506 56 173 3.0 10.0 0.00 0.05 0.00 73 1008.9
20260507132007 54 220 3.0 8.0 0.00 0.05 0.00 72 1009.0
20260507131507 54 263 2.0 9.0 0.00 0.05 0.00 73 1009.1
20260507131007 54 252 2.0 12.0 0.00 0.05 0.00 74 1009.1
20260507130507 54 240 5.0 12.0 0.00 0.05 0.00 73 1009.1
20260507130006 54 255 4.0 14.0 0.00 0.05 0.00 71 1009.1
20260507125509 54 241 5.0 14.0 0.00 0.05 0.00 70 1009.0
20260507125007 55 265 3.0 12.0 0.00 0.05 0.00 69 1009.0
20260507124007 55 271 3.0 13.0 0.00 0.05 0.00 70 1009.0
20260507123507 55 217 2.0 10.0 0.00 0.05 0.00 70 1009.0
20260507123007 55 216 3.0 13.0 0.00 0.05 0.00 69 1009.0
20260507122006 54 237 3.0 15.0 0.00 0.07 0.00 71 1009.0
20260507121006 54 240 3.0 9.0 0.00 0.07 0.00 72 1009.1
20260507120506 54 223 1.0 5.0 0.00 0.07 0.00 73 1009.1
20260507120006 54 239 2.0 5.0 0.00 0.07 0.00 73 1009.1
20260507114506 54 162 2.0 12.0 0.00 0.07 0.00 73 1009.3
20260507114007 54 107 3.0 12.0 0.00 0.07 0.00 70 1009.3
20260507113506 55 178 3.0 12.0 0.00 0.07 0.00 68 1009.1
20260507113007 55 244 2.0 12.0 0.00 0.07 0.00 69 1009.2
20260507112507 55 225 2.0 8.0 0.00 0.07 0.00 68 1009.1
20260507112007 55 159 4.0 13.0 0.00 0.07 0.00 68 1009.0
20260507111507 55 217 5.0 13.0 0.00 0.07 0.00 68 1009.0
20260507111007 54 212 3.0 12.0 0.00 0.07 0.00 69 1009.1
20260507110507 54 164 6.0 12.0 0.00 0.07 0.00 68 1009.1
20260507110008 55 220 5.0 10.0 0.00 0.07 0.00 67 1009.2
20260507105507 55 173 2.0 9.0 0.00 0.07 0.00 67 1009.1
20260507104507 55 229 4.0 13.0 0.00 0.07 0.00 69 1009.3
20260507104007 54 191 3.0 13.0 0.00 0.07 0.00 68 1009.3
20260507103006 54 107 3.0 12.0 0.00 0.07 0.00 68 1009.3
20260507102007 54 249 3.0 13.0 0.00 0.07 0.00 67 1009.2
20260507101507 54 268 3.0 14.0 0.00 0.07 0.00 68 1009.2
20260507101006 54 196 5.0 14.0 0.00 0.07 0.00 67 1009.1
20260507100506 54 185 5.0 14.0 0.00 0.07 0.00 68 1009.2
20260507100005 54 212 5.0 13.0 0.00 0.07 0.00 69 1009.2
20260507095506 53 270 4.0 15.0 0.00 0.07 0.00 70 1009.2
20260507095007 53 246 3.0 16.0 0.00 0.07 0.00 68 1009.3
20260507094006 53 222 4.0 12.0 0.00 0.07 0.00 69 1009.4
20260507093506 53 271 3.0 9.0 0.00 0.07 0.00 70 1009.5
20260507093007 52 238 2.0 9.0 0.00 0.07 0.00 71 1009.4
20260507092007 52 209 3.0 9.0 0.00 0.07 0.00 70 1009.3
20260507091506 52 182 3.0 13.0 0.00 0.07 0.00 70 1009.4
20260507091006 52 222 4.0 16.0 0.00 0.07 0.00 69 1009.4
20260507090507 52 226 3.0 16.0 0.00 0.07 0.00 70 1009.4
20260507090008 52 192 5.0 16.0 0.00 0.07 0.00 69 1009.4
20260507085509 52 297 2.0 9.0 0.00 0.07 0.00 70 1009.5
20260507085006 51 209 3.0 10.0 0.00 0.07 0.00 71 1009.5
20260507084505 51 235 4.0 12.0 0.00 0.07 0.00 70 1009.6
20260507084006 51 246 2.0 12.0 0.00 0.07 0.00 71 1009.6
20260507083507 51 192 5.0 12.0 0.00 0.07 0.00 70 1009.6
20260507083006 51 195 2.0 6.0 0.00 0.07 0.00 71 1009.6
20260507082514 51 215 0.0 3.0 0.00 0.07 0.00 71 1009.7
20260507082006 51 206 0.0 3.0 0.00 0.07 0.00 71 1009.7
20260507081506 50 197 0.0 3.0 0.00 0.07 0.00 70 1009.6
20260507081007 50 185 1.0 3.0 0.00 0.07 0.00 72 1009.7
20260507080506 50 164 1.0 6.0 0.00 0.07 0.00 71 1009.6
20260507080007 50 175 2.0 6.0 0.00 0.07 0.00 72 1009.7
20260507075506 50 146 0.0 3.0 0.00 0.07 0.00 73 1009.8
20260507075006 50 175 1.0 6.0 0.00 0.07 0.00 72 1009.8
20260507074507 49 119 1.0 6.0 0.00 0.07 0.00 72 1009.9
20260507074008 49 183 2.0 6.0 0.00 0.07 0.00 71 1009.9
20260507073506 49 214 2.0 5.0 0.00 0.07 0.00 72 1009.8
20260507073006 49 177 1.0 7.0 0.00 0.07 0.00 72 1009.9
20260507072507 49 201 3.0 7.0 0.00 0.07 0.00 72 1009.8
20260507072006 49 183 0.0 3.0 0.00 0.07 0.00 72 1009.8
20260507071507 49 214 0.0 8.0 0.00 0.07 0.00 71 1009.8
20260507071006 49 200 1.0 8.0 0.00 0.07 0.00 72 1009.8
20260507070010 48 152 0.0 5.0 0.00 0.07 0.00 73 1009.9
20260507065507 48 143 2.0 5.0 0.00 0.07 0.00 72 1009.8
20260507065006 48 144 1.0 5.0 0.00 0.07 0.00 72 1009.9
20260507064507 48 130 1.0 3.0 0.00 0.07 0.00 74 1009.9
20260507064007 48 110 1.0 7.0 0.00 0.07 0.00 74 1009.9
20260507063506 48 148 2.0 7.0 0.00 0.07 0.00 72 1009.9
20260507063007 48 135 1.0 3.0 0.00 0.07 0.00 74 1009.9
20260507062513 48 138 0.0 3.0 0.00 0.07 0.00 74 1010.0
20260507062006 48 143 0.0 3.0 0.00 0.07 0.00 73 1010.0
20260507061506 48 143 1.0 3.0 0.00 0.07 0.00 72 1010.1
20260507061006 48 191 0.0 3.0 0.00 0.07 0.00 72 1010.2
20260507055506 47 159 1.0 6.0 0.00 0.07 0.00 72 1010.1
20260507055006 47 177 1.0 6.0 0.00 0.07 0.00 72 1010.1
20260507054506 47 152 1.0 5.0 0.00 0.07 0.00 72 1010.1
20260507054006 47 180 1.0 6.0 0.00 0.07 0.00 72 1010.2
20260507053507 47 123 1.0 6.0 0.00 0.07 0.00 72 1010.2
20260507052513 47 196 1.0 7.0 0.00 0.07 0.00 72 1010.1
20260507051507 47 199 1.0 7.0 0.00 0.07 0.00 73 1010.2
20260507051006 47 196 2.0 7.0 0.00 0.07 0.00 74 1010.1
20260507050506 47 175 2.0 7.0 0.00 0.07 0.00 74 1010.2
20260507050006 47 126 1.0 3.0 0.00 0.07 0.00 74 1010.2
20260507045506 47 208 0.0 3.0 0.00 0.07 0.00 75 1010.2
20260507045006 47 166 0.0 3.0 0.00 0.07 0.00 74 1010.2
20260507044006 47 178 0.0 0.0 0.00 0.07 0.00 74 1010.3
20260507043506 47 178 0.0 2.0 0.00 0.07 0.00 73 1010.4
20260507043007 47 178 0.0 5.0 0.00 0.07 0.00 73 1010.4
20260507042006 47 219 2.0 6.0 0.00 0.07 0.00 73 1010.3
20260507041506 47 274 1.0 5.0 0.00 0.07 0.00 73 1010.4
20260507041006 47 265 2.0 7.0 0.00 0.07 0.00 73 1010.4
20260507040506 47 250 3.0 7.0 0.00 0.07 0.00 74 1010.4
20260507040006 46 268 1.0 9.0 0.00 0.07 0.00 75 1010.5
20260507035507 46 255 3.0 9.0 0.00 0.07 0.00 76 1010.5
20260507035006 45 243 2.0 9.0 0.00 0.07 0.00 78 1010.5
20260507034506 45 242 1.0 5.0 0.00 0.07 0.00 79 1010.6
20260507033006 45 298 0.0 3.0 0.00 0.07 0.00 81 1010.7
20260507032506 45 289 0.0 3.0 0.00 0.07 0.00 80 1010.6
20260507031506 44 273 0.0 0.0 0.00 0.07 0.00 81 1010.6
20260507031006 44 273 0.0 2.0 0.00 0.07 0.00 80 1010.6
20260507030507 44 273 1.0 2.0 0.00 0.07 0.00 81 1010.6
20260507030007 44 273 1.0 2.0 0.00 0.07 0.00 80 1010.8
20260507025506 45 269 1.0 2.0 0.00 0.07 0.00 80 1010.7
20260507025006 45 267 0.0 0.0 0.00 0.07 0.00 80 1010.8
20260507024506 45 267 0.0 0.0 0.00 0.07 0.00 79 1010.8
20260507024006 45 267 0.0 0.0 0.00 0.07 0.00 78 1010.8
20260507023506 45 267 0.0 0.0 0.00 0.07 0.00 78 1011.0